Regional Weather Roundup
Issued by NWS Kansas City/Pleasant Hill, MO

Home | Current Version | Previous Version | Text Only | Print | Product List | Glossary On
Versions: 1 2 3 4 5 6 7 8 9 10 11 12 13 14 15 16 17 18 19 20 21 22 23 24 25 26 27 28 29 30 31 32 33 34 35 36 37 38 39 40 41 42 43 44 45 46 47 48 49 50
642
ASUS43 KEAX 011410
RWREAX

WEATHER ROUNDUP FOR EASTERN KANSAS AND NORTHWEST MISSOURI
NATIONAL WEATHER SERVICE KANSAS CITY/PLEASANT HILL MO
900 AM CDT SUN MAY 01 2016

KSZ040-057-103>105-MOZ028-029-037-043-011500-
...KANSAS CITY METROPOLITAN AREA...

CITY           SKY/WX    TMP DP  RH WIND       PRES   REMARKS
K.C. INTL      MOSUNNY   55  48  77 W8        29.96R
K.C. DOWNTOWN  MOSUNNY   56  46  69 W9        29.97R
LEES SUMMIT    MOSUNNY   55  47  74 W9        29.97R
OLATHE - IXD   SUNNY     52  46  80 W9        29.99R
OLATHE - OJC   SUNNY     52  45  77 W8        29.98R
LAWRENCE       MOSUNNY   54  47  77 W9        29.99R

$$

MOZ001>008-011>017-020>025-030>033-038>040-044>046-053-054-011500-
...NORTHERN AND CENTRAL MISSOURI...

CITY           SKY/WX    TMP DP  RH WIND       PRES   REMARKS
ST. JOSEPH     CLOUDY    53  49  86 W8        29.96R
MOSBY          CLOUDY    54  46  76 W7        29.96R
WARRENSBURG    MOSUNNY   55  45  67 W9        29.96R
WHITEMAN AFB   MOSUNNY   58  48  70 W14       29.95R
CLINTON        CLOUDY    55  48  76 W9        29.98R
SEDALIA        SUNNY     58  50  75 W10       29.96R
WARSAW         NOT AVBL
CHILLICOTHE      N/A     53  50  89 NE5       29.95R
KIRKSVILLE     CLOUDY    50  47  89 NE7       29.96R FOG

$$

MOZ041-047>049-056>058-063>065-088>090-097-011500-
...EASTERN AND SOUTHERN MISSOURI...

CITY           SKY/WX    TMP DP  RH WIND       PRES   REMARKS
ST. LOUIS INTL CLOUDY    62  58  86 N7        29.91R
SPIRIT OF STL  CLOUDY    60  58  92 W6        29.91R
COLUMBIA       CLOUDY    61  55  81 CALM      29.93R
JEFFERSON CITY MOSUNNY   56  54  93 CALM      29.93R
ROLLA          SUNNY     59  51  75 NW6       29.92R
OSAGE BEACH    SUNNY     57  45  62 W7        29.95R
SPRINGFIELD    SUNNY     57  45  64 W10       29.99R
BRANSON        SUNNY     57  46  67 NW5       30.00R
JOPLIN         SUNNY     56  47  71 W9        30.02R
WEST PLAINS    SUNNY     62  52  69 N6        29.96R

$$

IAZ060-094-KSZ022-034>040-054-083-096-NEZ052-066-093-011500-
...KANSAS...SOUTHEAST NEBRASKA AND IOWA...

CITY           SKY/WX    TMP DP  RH WIND       PRES   REMARKS
TOPEKA         CLOUDY    51  46  83 W10       30.00R
MANHATTAN      CLOUDY    49  41  74 W7        30.01R
EMPORIA        MOSUNNY   48  42  80 W12       30.02R
CHANUTE        SUNNY     51  43  74 NW12      30.02R
WICHITA        PTSUNNY   48  39  71 NW21G26   30.06R
OMAHA          DRIZZLE   45  44  97 N10       30.03R FOG
LINCOLN        LGT RAIN  45  43  93 N14       30.04R FOG
FALLS CITY     CLOUDY    51  49  92 NE7       29.97R FOG
LAMONI         CLOUDY    45  45 100 NE8       29.96R FOG
DES MOINES     CLOUDY    46  43  89 E8        30.00R

$$





USA.gov is the U.S. government's official web portal to all federal, state and local government web resources and services.